Hourly Data Report for October 04, 2015

All times are specified in Local Standard Time (LST). Add 1 hour to adjust for Daylight Saving Time where and when it is observed.

KAMLOOPS A
BRITISH COLUMBIA

50°42'09.000" N
120°26'55.000" W
345.30 m
1163781
71887
YKA

Download Data

Hourly Data (October 2015)
Hourly Data Report for October 4, 2015
Temp Definition
°C
Dew Point Temp Definition
°C
Rel Hum Definition
%
Wind Dir Definition
10's deg

Wind Spd Definition
km/h
Visibility Definition
km
Stn Press Definition
kPa
Hmdx Definition


Wind Chill Definition


Weather Definition


TIME
00:00 Legend Double Dagger 3.5 -0.7 74 34 5 64.4 98.28     LegendNANA
01:00 Legend Double Dagger 4.0 0.5 78 36 4 64.4 98.31     Clear
02:00 Legend Double Dagger 3.5 1.2 85 36 2 64.4 98.27     LegendNANA
03:00 Legend Double Dagger 3.4 0.8 83 35 5 64.4 98.29     LegendNANA
04:00 Legend Double Dagger 2.5 -0.3 82 1 4 64.4 98.28     Clear
05:00 Legend Double Dagger 3.2 0.3 81 36 4 64.4 98.29     LegendNANA
06:00 Legend Double Dagger 1.2 -1.0 85 36 2 64.4 98.27     LegendNANA
07:00 Legend Double Dagger 2.5 0.4 86 2 4 64.4 98.28     Mostly Cloudy
08:00 Legend Double Dagger 4.9 1.6 79 0 1 64.4 98.26     LegendNANA
09:00 Legend Double Dagger 6.7 2.2 73 18 5 64.4 98.22     LegendNANA
10:00 Legend Double Dagger 8.1 1.7 64 17 5 64.4 98.09     Mainly Clear
11:00 Legend Double Dagger 10.0 2.4 59 15 7 64.4 97.99     LegendNANA
12:00 Legend Double Dagger 12.2 2.1 50 16 6 64.4 97.89     LegendNANA
13:00 Legend Double Dagger 13.6 2.0 45 14 6 64.4 97.78     Clear
14:00 Legend Double Dagger 14.8 1.8 41 13 8 64.4 97.64     LegendNANA
15:00 Legend Double Dagger 16.0 2.5 40 12 7 64.4 97.56     LegendNANA
16:00 Legend Double Dagger 16.3 3.1 41 10 8 64.4 97.49     Mainly Clear
17:00 Legend Double Dagger 14.2 4.0 50 9 9 64.4 97.46     LegendNANA
18:00 Legend Double Dagger 11.3 3.9 60 9 13 64.4 97.49     LegendNANA
19:00 Legend Double Dagger 10.3 3.6 63 9 17 64.4 97.53     Clear
20:00 Legend Double Dagger 9.2 3.8 69 9 15 64.4 97.55     LegendNANA
21:00 Legend Double Dagger 8.1 3.8 74 7 13 64.4 97.57     LegendNANA
22:00 Legend Double Dagger 6.8 3.6 80 11 8 64.4 97.57     Clear
23:00 Legend Double Dagger 6.3 3.6 83 10 11 64.4 97.58     LegendNANA

Notes on Data Quality.

Legend

  • E = Estimated
  • M = Missing
  • NA = Not Available
  • ‡ = Partner data that is not subject to review by the National Climate Archives
Date modified: